Location: Haliburton Scout Reserve
(45.0900°N, 78.3200°W)
Time: 03:07:47
(UTC-04:00)

DIWATA 2B (PO-101) - Pass Details

Date: 27 May 2022
Orbit: 585 x 597 km, 98.0° (Epoch: 27 June)

Event Time Altitude Azimuth Distance (km) Brightness Sun altitude
Exits shadow 04:00:27 19° 242° (WSW) 1,431 ? -13.1°
Maximum altitude 04:01:40 21° 266° (W) 1,335 ? -13.0°
Drops below altitude 10° 04:04:52 10° 317° (NW) 1,923 ? -12.6°
Sets 04:07:29 0° 333° (NNW) 2,832 ? -12.3°
